, MS

(GMT )
West Delta

Weather History for KDLP - February, 2014

Change the Weather History Date:

Monday, February 17, 2014

  Actual Average Record
Temperature  
Mean Temperature 72 °F -  
Max Temperature 82 °F - - ()
Min Temperature 62 °F - - ()
Cooling Degree Days 7    
Growing Degree Days 22 (Base 50)    
Moisture  
Dew Point 65 °F    
Average Humidity 88    
Maximum Humidity 100    
Minimum Humidity 58    
Precipitation  
Precipitation 0.00 in - - ()
Sea Level Pressure  
Sea Level Pressure 30.13 in    
Wind  
Wind Speed 12 mph (South)    
Max Wind Speed 16 mph    
Max Gust Speed -    
Visibility 9 miles    
Events Fog    
T = Trace of Precipitation, MM = Missing Value Source: NWS Daily Summary

Daily Weather History Graph

Daily Weather History Graph

Search for Another Location

Airport or City:

Trip Planner

Search our weather history database for the weather conditions in past years. The results will help you decide how hot, cold, wet, or windy it might be!

Date:

Astronomy

Feb. 17, 2014 Rise Set
Actual Time 6:35 AM CST 5:49 PM CST
Civil Twilight 6:11 AM CST 6:13 PM CST
Nautical Twilight 5:43 AM CST 6:41 PM CST
Astronomical Twilight 5:15 AM CST 7:09 PM CST
Moon 8:26 PM CST (2/17) 7:51 AM CST (2/17)
Length of Visible Light 12h 02m
Length of Day
11h 14m
Waning Gibbous, 93% of the Moon is Illuminated
Feb 17
Waning Gibbous
Feb 22
Last Quarter
Mar 1
New
Mar 8
First Quarter
Mar 16
Full

Hourly Weather History & Observations

Time (CST) Temp. Heat Index Dew Point Humidity Pressure Visibility Wind Dir Wind Speed Gust Speed Precip Events Conditions
12:15 AM 64.4 °F - 59.0 °F 83% 30.12 in 10.0 mi SSE 16.1 mph - N/A   Overcast
12:35 AM 66.2 °F - 59.0 °F 78% 30.12 in 10.0 mi South 15.0 mph - N/A   Overcast
12:55 AM 64.4 °F - 60.8 °F 88% 30.12 in 10.0 mi South 12.7 mph - N/A   Overcast
1:15 AM 66.2 °F - 60.8 °F 83% 30.12 in 10.0 mi South 15.0 mph - N/A   Overcast
1:35 AM 64.4 °F - 59.0 °F 83% 30.11 in 10.0 mi South 15.0 mph - N/A   Overcast
1:55 AM 66.2 °F - 60.8 °F 83% 30.11 in 10.0 mi South 15.0 mph - N/A   Overcast
2:15 AM 66.2 °F - 60.8 °F 83% 30.11 in 10.0 mi South 13.8 mph - N/A   Overcast
2:35 AM 66.2 °F - 60.8 °F 83% 30.10 in 10.0 mi South 12.7 mph - N/A   Overcast
2:55 AM 66.2 °F - 60.8 °F 83% 30.10 in 10.0 mi South 13.8 mph - N/A   Overcast
3:15 AM 64.4 °F - 60.8 °F 88% 30.10 in 10.0 mi South 12.7 mph - N/A   Overcast
3:35 AM 62.6 °F - 60.8 °F 94% 30.10 in 10.0 mi South 12.7 mph - N/A   Overcast
3:55 AM 62.6 °F - 60.8 °F 94% 30.10 in 10.0 mi South 12.7 mph - N/A   Overcast
4:15 AM 64.4 °F - 62.6 °F 94% 30.10 in 10.0 mi South 12.7 mph - N/A   Overcast
4:35 AM 62.6 °F - 60.8 °F 94% 30.10 in 10.0 mi South 12.7 mph - N/A   Overcast
4:55 AM 64.4 °F - 62.6 °F 94% 30.10 in 10.0 mi South 12.7 mph - N/A   Overcast
5:15 AM 64.4 °F - 62.6 °F 94% 30.11 in 10.0 mi South 12.7 mph - N/A   Overcast
5:35 AM 64.4 °F - 62.6 °F 94% 30.11 in 10.0 mi South 10.4 mph - N/A   Overcast
5:55 AM 64.4 °F - 62.6 °F 94% 30.11 in 10.0 mi SSE 9.2 mph - N/A   Overcast
6:15 AM 64.4 °F - 62.6 °F 94% 30.12 in 10.0 mi SSE 9.2 mph - N/A   Overcast
6:35 AM 62.6 °F - 62.6 °F 100% 30.12 in 10.0 mi South 12.7 mph - N/A   Overcast
6:55 AM 64.4 °F - 62.6 °F 94% 30.13 in 10.0 mi SSE 11.5 mph - N/A   Mostly Cloudy
7:15 AM 64.4 °F - 62.6 °F 94% 30.13 in 10.0 mi South 11.5 mph - N/A   Scattered Clouds
7:35 AM 64.4 °F - 62.6 °F 94% 30.13 in 10.0 mi South 13.8 mph - N/A   Partly Cloudy
7:55 AM 64.4 °F - 62.6 °F 94% 30.13 in 10.0 mi South 13.8 mph - N/A   Mostly Cloudy
8:15 AM 66.2 °F - 64.4 °F 94% 30.14 in 10.0 mi SSE 15.0 mph - N/A   Mostly Cloudy
8:35 AM 68.0 °F - 64.4 °F 88% 30.14 in 10.0 mi South 13.8 mph - N/A   Partly Cloudy
8:55 AM 66.2 °F - 64.4 °F 94% 30.15 in 10.0 mi SSE 12.7 mph - N/A   Mostly Cloudy
9:15 AM 64.4 °F - 64.4 °F 100% 30.15 in 10.0 mi SSE 13.8 mph - N/A   Mostly Cloudy
9:35 AM 68.0 °F - 64.4 °F 88% 30.15 in 10.0 mi SSE 16.1 mph - N/A   Mostly Cloudy
9:55 AM 69.8 °F - 64.4 °F 83% 30.16 in 10.0 mi SSE 10.4 mph - N/A   Scattered Clouds
10:15 AM 69.8 °F - 64.4 °F 83% 30.15 in 10.0 mi SSE 12.7 mph - N/A   Mostly Cloudy
10:35 AM 71.6 °F - 66.2 °F 83% 30.16 in 10.0 mi SSE 11.5 mph - N/A   Partly Cloudy
10:55 AM 69.8 °F - 64.4 °F 83% 30.17 in 10.0 mi SSE 11.5 mph - N/A   Partly Cloudy
11:15 AM 69.8 °F - 66.2 °F 88% 30.16 in 10.0 mi SSE 10.4 mph - N/A   Partly Cloudy
11:35 AM 71.6 °F - 66.2 °F 83% 30.16 in 10.0 mi South 12.7 mph - N/A   Clear
11:55 AM 75.2 °F - 66.2 °F 73% 30.15 in 10.0 mi South 10.4 mph - N/A   Scattered Clouds
12:15 PM 69.8 °F - 64.4 °F 83% 30.15 in 10.0 mi SW 8.1 mph - N/A   Mostly Cloudy
12:35 PM 75.2 °F - 64.4 °F 69% 30.15 in 10.0 mi WSW 6.9 mph - N/A   Scattered Clouds
12:55 PM 71.6 °F - 66.2 °F 83% 30.14 in 10.0 mi SW 5.8 mph - N/A   Clear
1:15 PM 68.0 °F - 66.2 °F 94% 30.14 in 10.0 mi SW 6.9 mph - N/A   Clear
1:35 PM 78.8 °F - 66.2 °F 65% 30.15 in 10.0 mi WSW 4.6 mph - N/A   Mostly Cloudy
1:55 PM 82.4 °F 84.6 °F 66.2 °F 58% 30.14 in 10.0 mi WSW 4.6 mph - N/A   Overcast
2:15 PM 71.6 °F - 66.2 °F 83% 30.13 in 10.0 mi SW 5.8 mph - N/A   Mostly Cloudy
2:35 PM 73.4 °F - 66.2 °F 78% 30.13 in 10.0 mi SW 8.1 mph - N/A   Mostly Cloudy
2:55 PM 71.6 °F - 66.2 °F 83% 30.13 in 10.0 mi SW 5.8 mph - N/A   Partly Cloudy
3:15 PM 71.6 °F - 66.2 °F 83% 30.12 in 10.0 mi SW 5.8 mph - N/A   Clear
3:35 PM 69.8 °F - 66.2 °F 88% 30.13 in 10.0 mi SW 5.8 mph - N/A   Clear
3:55 PM 69.8 °F - 66.2 °F 88% 30.12 in 10.0 mi SW 5.8 mph - N/A   Clear
4:15 PM 69.8 °F - 64.4 °F 83% 30.12 in 10.0 mi SW 6.9 mph - N/A   Clear
4:35 PM 69.8 °F - 66.2 °F 88% 30.12 in 10.0 mi SSW 6.9 mph - N/A   Clear
4:55 PM 69.8 °F - 64.4 °F 83% 30.12 in 10.0 mi SSW 6.9 mph - N/A   Clear
5:15 PM 69.8 °F - 66.2 °F 88% 30.13 in - SW 6.9 mph - N/A   Unknown
5:35 PM 68.0 °F - 66.2 °F 94% 30.13 in 10.0 mi SW 6.9 mph - N/A   Clear
5:55 PM 68.0 °F - 66.2 °F 94% 30.13 in 10.0 mi SW 6.9 mph - N/A   Clear
6:15 PM 68.0 °F - 66.2 °F 94% 30.13 in 10.0 mi SSW 6.9 mph - N/A   Clear
6:35 PM 68.0 °F - 66.2 °F 94% 30.13 in 10.0 mi SW 6.9 mph - N/A   Clear
6:55 PM 68.0 °F - 66.2 °F 94% 30.14 in 10.0 mi SW 5.8 mph - N/A   Clear
7:15 PM 68.0 °F - 66.2 °F 94% 30.14 in 10.0 mi SSW 9.2 mph - N/A   Clear
7:35 PM 69.8 °F - 66.2 °F 88% 30.15 in 10.0 mi SSW 9.2 mph - N/A   Clear
7:55 PM 69.8 °F - 66.2 °F 88% 30.15 in 10.0 mi SSW 10.4 mph - N/A   Clear
8:15 PM 69.8 °F - 68.0 °F 94% 30.15 in 10.0 mi SSW 10.4 mph - N/A   Scattered Clouds
8:35 PM 71.6 °F - 68.0 °F 88% 30.15 in 10.0 mi South 10.4 mph - N/A   Overcast
8:55 PM 71.6 °F - 68.0 °F 88% 30.15 in 10.0 mi South 10.4 mph - N/A   Overcast
9:15 PM 71.6 °F - 68.0 °F 88% 30.16 in 10.0 mi South 10.4 mph - N/A   Overcast
9:35 PM 71.6 °F - 68.0 °F 88% 30.16 in 10.0 mi South 10.4 mph - N/A   Overcast
9:55 PM 71.6 °F - 68.0 °F 88% 30.17 in 9.0 mi South 10.4 mph - N/A   Overcast
10:15 PM 71.6 °F - 68.0 °F 88% 30.17 in 0.5 mi South 11.5 mph - N/A Fog Fog
10:35 PM 71.6 °F - 68.0 °F 88% 30.16 in 0.5 mi South 11.5 mph - N/A   Mist
10:55 PM 69.8 °F - 68.0 °F 94% 30.16 in 0.2 mi South 12.7 mph - N/A Fog Fog
11:15 PM 69.8 °F - 68.0 °F 94% 30.15 in 0.2 mi South 12.7 mph - N/A Fog Fog
11:35 PM 68.0 °F - 66.2 °F 94% 30.15 in 0.2 mi South 11.5 mph - N/A Fog Fog
11:55 PM 66.2 °F - 66.2 °F 100% 30.15 in 0.2 mi South 10.4 mph - N/A Fog Fog